Theta_e
345 344 346 350 350 349 349 349 349 349 348 348 349 348 349 349 348 347 347 347 347 347 346 345 343 342 341 340 340 338 338 337 337 337 338 340 338 338 338 339 340 339 337 338 338 339 340 340 341 340 340 339 339 339 338 339 339 340 339 340 340 340 341 341 342 342 342 343 343 343 342 343 340 340 341 341 339 337 341 336 335 332 331 332 336
344 345 346 348 350 349 349 349 348 349 348 347 346 348 349 349 348 347 347 347 346 345 345 344 343 341 339 339 340 338 338 337 337 337 339 338 337 336 337 337 336 337 340 340 340 341 341 341 341 340 340 339 337 337 337 337 338 338 338 338 338 338 338 339 340 340 342 342 343 342 342 341 339 339 339 339 338 337 338 335 333 330 327 334 334
346 345 346 347 350 350 349 348 348 348 347 347 347 346 346 347 348 347 346 346 345 344 343 341 340 341 339 338 339 339 338 338 337 338 338 336 335 335 335 335 335 336 340 342 341 341 342 342 342 341 340 339 337 335 335 335 337 337 337 337 337 337 337 337 337 338 339 341 342 341 341 340 340 339 340 339 339 338 336 334 334 334 329 332 331
344 344 346 348 349 349 349 348 348 347 345 347 347 346 345 345 347 346 346 345 344 342 340 340 340 338 337 337 337 337 337 339 338 337 336 335 338 337 335 335 337 337 339 342 341 340 339 339 339 338 338 337 337 335 334 333 335 336 337 337 336 336 336 336 337 337 338 338 341 340 338 335 337 340 340 340 338 338 337 335 333 332 333 334 333
345 345 346 347 347 349 349 348 347 346 345 344 345 345 345 345 345 345 344 343 341 340 339 340 339 337 337 337 337 336 336 337 335 335 336 338 338 335 338 337 336 336 338 340 339 338 339 338 337 337 337 336 336 335 334 334 335 336 337 336 336 335 335 335 336 337 338 340 341 341 339 335 335 339 340 340 339 338 336 335 334 333 333 333 334
345 345 346 346 346 347 348 348 347 346 345 344 343 344 344 344 344 344 343 342 341 340 339 339 337 337 334 336 335 337 336 337 337 336 337 338 337 335 335 335 334 335 338 337 338 338 337 336 335 335 334 335 335 335 335 334 335 337 337 336 335 335 335 335 337 338 340 342 340 338 335 335 335 337 340 338 336 335 336 336 335 334 332 330 330
345 346 345 345 346 346 347 348 347 346 346 344 343 343 343 343 343 342 342 341 341 340 339 338 337 336 335 337 335 335 336 336 338 337 336 337 336 335 335 335 334 333 334 338 338 337 336 335 335 335 335 334 334 335 334 334 335 336 337 337 336 335 335 335 337 339 340 336 330 333 334 335 336 337 339 339 339 338 337 336 335 333 333 332 329
346 346 345 345 345 346 346 348 348 346 346 344 343 342 342 343 344 343 341 341 340 339 338 338 337 337 338 338 335 335 335 335 335 336 337 336 335 333 335 336 333 330 332 338 335 334 333 334 334 335 334 334 334 334 334 334 335 336 337 337 336 336 335 336 336 338 340 331 328 330 332 336 336 337 339 338 338 338 336 334 333 333 331 330 329
344 346 345 346 345 345 346 347 348 346 345 344 343 342 341 344 344 345 344 342 341 339 339 338 337 337 338 339 337 335 334 334 336 336 336 334 334 335 335 334 333 333 333 333 333 334 333 333 335 334 335 334 334 333 333 334 335 336 337 337 337 335 335 336 338 339 330 327 328 329 327 329 336 335 338 338 338 337 336 336 334 329 330 331 330
344 345 345 346 346 344 345 346 348 346 345 344 343 342 342 344 345 345 344 343 341 337 337 337 337 338 339 340 339 337 335 334 335 336 335 333 333 334 334 333 333 333 332 333 334 332 333 334 332 334 334 334 333 333 333 334 334 336 336 338 337 336 335 337 336 334 330 327 328 327 327 335 334 335 338 339 337 337 335 337 334 332 331 330 330
343 344 345 346 345 343 346 347 347 347 345 344 343 342 342 344 345 345 344 341 339 337 336 338 336 338 341 342 342 339 336 334 335 336 334 333 334 335 334 332 332 331 332 333 332 332 332 332 332 333 333 333 332 332 332 334 333 334 336 337 336 336 335 337 336 327 326 326 326 326 330 335 333 334 338 338 337 337 334 333 334 331 330 330 328
341 343 345 346 346 343 345 346 347 347 346 345 343 342 342 342 345 344 343 340 338 337 336 337 337 337 344 344 343 340 338 335 335 335 334 333 332 334 334 332 330 333 334 333 333 331 332 332 332 333 331 332 332 332 332 332 333 333 335 336 335 335 335 335 331 326 326 324 327 326 326 329 335 338 338 338 337 337 333 331 332 332 333 333 330
342 342 345 345 344 342 344 346 346 346 346 344 343 342 342 341 342 344 343 340 338 337 337 336 337 336 344 344 342 339 339 338 335 334 333 336 335 334 333 330 333 334 333 331 332 330 330 331 332 331 331 331 330 330 331 331 331 331 331 331 332 332 332 332 328 324 325 326 326 327 328 328 334 339 338 338 337 337 333 332 334 335 335 333 332
341 343 345 344 344 346 342 344 344 345 345 344 344 343 343 342 341 341 342 339 338 337 337 337 336 337 337 340 338 339 340 339 337 335 334 336 335 334 332 332 331 334 333 331 330 332 331 331 331 330 330 330 330 330 330 330 331 330 330 330 329 329 330 327 329 323 324 325 326 328 325 327 331 337 337 338 338 338 337 336 337 337 336 335 333
341 343 345 345 344 344 345 341 343 343 343 344 344 344 342 342 342 341 340 338 338 337 337 336 335 338 337 337 338 339 341 341 338 338 339 338 336 335 332 333 332 331 332 331 330 332 329 330 331 331 330 329 330 330 330 330 331 331 329 329 329 328 329 322 322 323 325 327 323 326 325 326 334 333 334 336 337 337 338 338 338 338 337 336 335
343 344 345 345 344 344 344 344 339 340 341 342 342 343 343 341 343 341 340 339 338 338 337 335 336 337 339 338 337 338 339 340 340 342 342 341 336 336 335 333 333 331 333 329 332 333 331 331 331 331 330 330 330 330 330 330 331 331 329 328 328 327 326 322 320 320 321 323 324 327 324 325 334 333 333 333 335 337 338 338 339 339 339 338 337
343 343 344 344 344 344 344 344 341 337 337 338 340 341 342 342 343 342 342 341 339 339 339 339 338 336 340 341 340 341 341 340 341 341 342 340 338 340 339 336 335 334 334 332 332 334 331 330 330 330 331 331 331 330 330 331 331 331 331 328 327 326 323 320 319 319 319 323 327 324 321 325 332 332 332 331 333 335 337 338 338 339 339 339 339
341 342 342 344 343 344 344 344 342 341 341 338 336 338 340 342 341 341 342 342 341 341 341 341 341 341 341 341 341 342 342 340 342 342 343 341 338 338 340 338 336 335 335 335 334 333 333 332 332 331 330 331 332 331 331 331 330 332 331 329 326 323 320 319 318 319 320 325 323 325 323 334 333 332 331 331 332 334 335 336 338 339 339 339 339
337 338 339 344 344 343 343 343 343 343 342 340 340 338 336 338 339 340 340 341 341 340 339 339 339 339 339 338 338 338 337 339 340 340 338 337 335 335 336 337 337 336 335 335 335 334 333 333 333 333 332 331 332 332 332 331 333 332 331 328 324 321 318 317 317 319 320 320 323 323 322 332 332 331 330 331 332 333 334 335 336 337 339 339 339
334 334 335 337 343 343 343 343 343 343 343 342 342 341 335 334 336 337 338 338 339 339 337 336 335 335 334 334 333 331 331 333 334 334 333 335 334 330 332 333 337 336 336 336 336 336 334 334 333 333 333 332 333 333 334 333 333 332 330 327 325 321 318 317 317 318 319 321 323 322 327 334 333 331 331 331 331 333 334 334 335 336 337 338 339
334 333 333 334 335 342 342 342 343 343 342 342 342 342 339 333 333 333 334 334 335 336 334 330 328 328 329 327 329 331 330 331 331 333 329 331 328 327 330 333 336 336 336 336 335 334 334 334 334 334 333 333 334 334 333 334 333 331 329 326 322 319 318 319 320 320 321 321 323 322 330 332 332 332 331 331 332 333 333 334 334 335 337 337 339
330 330 332 333 333 333 339 342 342 342 342 343 343 343 341 335 338 337 336 332 331 331 329 332 336 334 326 331 330 330 329 328 331 334 330 330 327 325 327 331 334 334 336 335 334 333 334 333 333 334 333 334 330 328 327 329 331 331 327 322 320 319 319 321 321 320 321 320 322 324 331 333 332 331 332 332 332 333 334 334 335 336 336 337 338
329 330 331 332 333 333 334 334 340 342 342 342 343 343 342 338 338 338 337 332 334 334 334 334 334 335 335 335 333 332 329 328 327 331 331 327 329 324 325 328 330 331 333 335 336 335 334 333 334 336 335 331 325 325 325 326 326 326 323 321 320 320 322 322 321 321 321 320 321 326 331 333 333 332 332 332 332 334 333 334 335 335 335 336 336
330 330 330 333 332 332 333 334 334 336 338 338 340 339 341 339 339 339 337 336 335 334 334 334 333 333 334 335 333 333 330 328 332 335 337 330 327 323 323 325 326 326 327 330 331 333 334 335 335 335 331 326 326 326 325 323 327 325 323 322 321 322 322 321 319 321 321 322 322 326 331 333 333 332 333 333 333 333 333 334 334 334 334 334 335
330 332 331 332 331 332 332 333 334 335 335 336 337 335 340 340 339 339 339 337 336 335 334 333 333 332 333 333 335 333 331 329 328 330 331 331 329 326 325 325 325 324 321 324 326 327 328 327 329 328 326 326 326 325 325 324 324 324 323 322 323 321 319 319 319 318 319 320 320 325 329 332 333 333 333 333 333 332 333 333 334 334 334 334 335
331 330 331 331 332 332 332 333 333 334 335 334 335 335 335 336 337 336 335 337 337 336 334 333 332 333 333 333 332 331 330 329 328 328 329 329 327 328 328 327 327 327 325 325 326 326 326 326 327 326 326 326 325 325 324 323 322 320 320 320 320 319 320 319 318 319 320 320 321 323 326 330 333 333 333 334 334 333 333 333 334 334 334 335 335
331 331 332 332 332 333 332 333 332 333 334 335 335 334 334 333 333 333 334 333 335 335 333 332 331 332 333 332 331 330 329 328 328 328 327 327 325 324 326 328 328 328 328 327 326 326 325 326 326 327 327 326 326 325 323 322 321 320 320 319 319 319 318 317 318 318 318 319 320 322 324 329 332 332 332 333 334 334 335 335 335 335 336 336 335
331 331 333 333 332 332 333 332 332 333 333 335 334 333 333 333 333 332 333 331 331 331 331 332 332 331 331 331 329 329 327 327 326 326 326 326 324 325 325 324 326 327 327 328 327 326 325 324 325 325 326 326 326 325 322 322 322 322 321 321 320 319 319 318 318 318 318 319 320 321 323 326 329 331 332 333 334 334 334 335 336 336 336 336 336
331 331 332 333 333 333 333 332 332 332 334 335 333 333 333 333 332 332 332 331 332 332 333 333 333 331 331 330 329 328 327 327 325 325 325 325 324 325 324 324 325 325 325 323 324 324 324 323 322 322 323 322 321 322 321 321 321 321 320 319 319 319 319 318 318 317 318 319 320 320 322 324 327 331 332 332 333 334 335 335 335 336 336 337 336
333 333 333 332 333 334 333 332 332 333 333 333 333 332 332 332 333 332 333 331 332 332 333 332 333 332 329 331 330 329 328 327 326 325 325 325 324 325 325 324 324 324 324 324 323 321 320 320 321 321 321 321 321 321 320 321 321 320 320 319 319 319 318 317 318 318 319 319 320 320 320 321 324 328 330 331 332 333 334 335 335 335 336 337 336
332 333 333 333 333 333 333 333 333 331 332 332 332 332 332 332 332 333 332 331 331 332 331 331 331 331 331 330 330 329 329 328 326 325 325 325 325 325 324 325 324 324 324 324 324 322 321 320 321 321 321 321 320 320 319 320 319 320 320 319 319 319 318 319 318 319 319 319 319 320 320 320 322 324 328 331 332 332 333 334 334 335 336 337 337
331 332 333 334 333 334 334 334 334 333 332 332 331 332 332 332 332 332 332 332 332 332 332 331 329 330 331 330 330 329 328 328 327 327 325 325 324 324 325 324 324 323 324 323 323 322 322 321 320 321 320 320 320 319 320 319 319 319 319 319 320 319 318 318 318 319 319 319 319 320 320 320 320 322 324 328 331 331 332 333 334 334 335 336 336
332 332 333 333 333 333 334 335 334 333 332 331 331 332 332 333 332 332 332 333 332 332 331 331 331 331 331 331 331 330 329 328 328 328 326 324 324 324 324 324 324 324 324 324 323 322 322 321 321 320 320 320 318 318 318 318 317 317 318 318 318 318 318 318 318 319 319 319 320 320 320 319 319 319 320 322 326 330 331 332 333 334 335 336 336
331 331 332 333 334 335 335 335 334 333 332 332 332 331 332 332 332 332 331 332 332 332 331 332 331 331 331 331 331 331 329 330 329 328 328 325 325 325 324 324 324 324 324 324 323 322 321 320 320 320 319 319 318 317 316 316 316 316 317 318 318 317 318 318 317 318 318 319 320 321 321 320 320 320 320 320 321 325 329 331 332 333 334 335 336
331 332 332 333 334 334 335 335 333 333 331 332 331 332 332 332 332 332 332 332 332 332 332 331 331 330 330 331 331 331 330 330 329 329 328 327 325 324 323 323 324 324 323 323 322 323 322 321 321 320 319 318 318 318 317 317 316 316 317 317 317 318 317 317 318 318 319 319 320 321 321 320 320 320 321 320 318 320 324 329 332 332 333 334 334
332 332 332 333 333 334 334 333 333 333 333 332 332 332 333 333 333 332 333 333 331 331 331 331 330 330 329 329 330 330 330 330 330 330 328 327 326 325 325 325 324 324 323 322 323 322 322 323 322 322 320 318 317 317 317 316 316 316 316 317 317 317 318 319 319 320 320 320 320 321 321 321 321 322 319 322 322 319 320 324 328 330 331 332 334
332 332 333 332 332 333 332 333 333 333 334 333 333 332 333 333 333 333 334 333 333 331 331 330 330 330 330 329 329 330 329 330 330 330 329 328 327 327 325 326 325 324 323 323 323 323 323 323 323 324 323 319 317 317 316 316 317 317 317 318 319 320 320 321 321 322 323 321 321 321 321 321 321 317 322 322 322 322 319 319 322 325 326 329 331
331 332 333 333 333 333 333 332 333 334 334 334 333 333 333 333 333 333 332 333 333 333 332 331 331 331 331 331 330 330 329 330 330 330 329 328 328 328 327 326 326 325 324 324 324 325 325 324 323 324 324 322 319 317 317 317 318 318 319 320 321 321 321 321 322 319 321 321 321 321 322 322 322 322 322 322 322 322 322 320 319 319 320 322 326
329 331 332 333 333 333 332 332 332 333 333 334 333 333 333 333 332 332 332 332 333 333 333 332 332 331 332 332 331 330 328 330 330 329 329 328 328 328 328 327 327 326 325 324 324 325 325 325 324 324 324 324 321 319 319 319 320 321 321 321 322 322 322 322 322 321 321 321 320 320 322 322 322 322 322 322 321 322 322 321 320 318 318 317 322
328 329 329 331 332 332 332 332 332 334 334 333 333 333 332 331 329 330 329 330 331 331 333 333 332 332 332 332 332 331 329 329 330 329 329 328 328 328 327 328 327 327 325 324 324 325 324 324 324 324 323 322 322 322 321 320 320 321 319 321 322 322 322 322 322 321 321 321 321 321 320 321 321 321 321 322 321 321 321 320 320 319 319 318 318
327 327 328 329 331 331 330 331 332 333 332 332 332 332 331 330 329 329 328 329 329 331 331 333 333 332 332 332 332 332 331 329 329 329 328 326 328 328 327 327 327 326 325 325 325 325 325 325 325 324 323 321 321 322 322 321 319 318 320 320 320 322 321 320 321 321 321 322 322 321 321 320 320 320 321 321 321 320 320 320 319 319 319 318 318
326 326 326 328 330 330 330 331 332 332 332 332 332 332 333 332 330 329 329 329 328 328 329 330 332 332 332 332 332 332 331 330 328 329 328 328 327 327 327 326 326 326 326 325 325 322 323 325 325 323 323 321 320 322 322 320 317 315 314 314 316 318 319 319 319 320 320 321 321 321 321 320 320 320 320 320 320 320 320 319 319 319 318 318 318
325 326 326 327 328 329 330 330 331 331 331 331 331 331 333 333 332 330 330 329 330 330 330 330 330 331 331 331 332 332 331 331 329 328 328 328 327 327 326 326 326 326 325 325 324 323 323 323 324 323 321 322 321 321 321 321 317 317 316 313 310 309 311 315 318 319 320 320 321 320 320 320 321 320 320 319 318 319 319 318 318 318 317 318 317
318 320 323 325 327 328 329 330 330 331 331 331 329 332 332 333 333 332 331 330 328 329 329 329 329 329 329 331 332 332 332 331 331 329 328 328 327 326 326 326 326 326 325 324 324 323 323 323 323 323 322 319 319 320 322 322 320 316 310 310 307 306 307 309 314 318 320 320 320 320 320 321 320 319 318 318 317 317 317 317 318 318 318 317 318
319 318 319 322 325 326 328 329 330 330 331 330 329 330 330 330 332 331 329 329 329 328 328 327 328 328 328 329 330 332 332 331 331 331 328 328 327 327 326 326 326 327 326 325 324 324 324 324 323 322 322 320 318 319 320 322 321 321 315 307 306 305 306 307 309 311 317 318 318 319 319 319 319 318 317 316 316 316 317 316 317 317 318 318 318
320 320 320 320 320 322 325 327 329 329 330 330 330 329 329 329 329 328 326 326 325 326 325 326 327 327 327 329 330 331 332 331 331 331 330 327 327 327 327 326 326 326 326 326 325 324 323 323 324 323 322 322 319 317 318 319 321 320 320 318 312 309 307 309 309 305 311 315 316 317 317 317 317 316 316 316 316 316 316 317 316 316 317 317 317
319 321 321 320 319 320 321 324 327 328 329 329 330 328 328 328 329 328 328 326 325 326 328 329 329 329 329 329 329 330 331 331 331 331 331 329 328 327 327 327 327 327 326 326 325 324 324 324 324 323 323 322 321 318 317 317 318 319 320 319 318 315 312 310 306 306 306 306 311 313 314 315 315 314 315 315 316 315 316 316 316 317 317 317 318
316 318 319 320 320 319 319 320 323 325 328 329 329 329 327 327 327 327 327 326 325 325 327 328 329 329 329 329 329 329 330 331 330 330 330 330 328 328 327 327 327 327 326 326 326 325 325 324 323 324 323 323 322 320 318 318 316 316 319 318 317 317 316 314 312 312 306 305 306 309 312 312 313 315 315 316 316 316 316 315 316 316 316 316 316
313 314 317 318 319 320 319 319 319 322 324 326 327 329 327 327 327 327 326 326 327 326 326 326 327 328 328 329 329 329 330 330 330 330 329 330 327 327 327 327 327 327 325 326 326 326 325 324 323 323 322 322 322 322 320 319 318 316 316 317 318 317 317 317 315 313 311 309 309 310 311 311 312 313 315 315 316 316 316 315 315 315 316 316 316
316 316 316 317 317 319 320 318 318 319 321 322 325 328 328 326 326 325 325 325 325 325 325 325 326 327 327 327 329 329 329 329 329 329 329 329 329 327 327 326 326 326 324 326 326 325 325 324 324 323 323 322 323 322 321 321 320 319 317 316 315 316 316 315 315 314 314 314 310 307 308 307 308 308 312 312 313 314 316 316 315 314 315 315 316
316 317 317 316 316 317 318 319 319 319 320 320 322 325 328 327 325 325 325 324 324 324 323 323 324 325 325 326 326 328 329 329 329 329 329 329 329 327 326 327 327 325 324 325 325 326 326 325 325 324 323 323 323 323 321 321 321 319 318 316 316 315 314 313 313 314 313 311 311 311 311 310 309 308 312 314 313 314 315 315 315 315 315 315 315
Wind_Speed
10 12 10 14 14 15 15 14 13 12 12 13 12 11 11 11 11 11 12 12 13 12 11 11 9 8 7 5 7 8 7 7 8 10 9 11 9 8 9 10 9 10 9 8 9 10 10 10 10 10 10 10 11 10 10 10 12 12 12 12 12 11 11 11 10 10 11 12 12 11 10 11 11 10 10 10 10 9 5 10 11 6 4 7 11
12 12 9 11 15 15 15 14 13 12 11 11 12 12 12 12 11 12 12 12 11 11 10 10 9 8 6 6 6 8 9 8 7 9 10 10 9 9 8 9 9 9 12 11 11 10 10 9 12 10 10 10 10 10 8 8 9 10 11 11 11 11 10 9 8 8 9 10 11 11 10 11 10 10 10 10 10 11 11 12 11 5 3 9 10
12 12 9 11 14 14 14 14 13 12 12 11 10 11 9 10 12 12 11 11 10 10 10 7 7 8 7 6 6 7 7 9 9 9 10 8 9 9 8 8 7 8 12 12 10 11 11 11 12 11 12 10 10 9 7 8 9 10 9 10 10 11 9 8 7 6 7 7 9 10 9 10 10 9 9 9 10 10 10 11 10 7 5 10 9
12 10 9 11 13 12 14 14 13 12 12 11 11 10 9 7 11 11 10 10 9 7 7 8 7 5 6 5 6 6 7 11 9 9 8 8 10 8 8 8 8 8 11 11 10 10 10 11 11 11 11 11 10 8 7 8 8 8 9 9 9 9 9 7 5 4 3 4 8 7 3 4 5 8 9 9 10 11 9 10 9 9 10 9 10
12 11 9 9 9 11 13 13 13 12 12 11 11 11 9 9 8 10 8 7 6 8 7 9 7 6 6 6 7 7 6 8 8 6 10 10 9 8 9 8 7 8 9 9 8 10 10 10 10 10 10 10 9 8 8 8 8 8 8 8 8 8 8 6 5 5 5 2 3 2 1 4 4 6 7 9 9 9 8 9 8 8 8 8 7
11 10 10 9 9 9 12 12 13 13 12 11 11 10 10 10 10 9 8 8 7 7 7 6 5 7 4 6 4 7 6 8 8 7 10 9 8 8 8 7 7 7 8 7 10 10 9 9 10 9 9 9 9 8 8 8 8 8 8 7 7 7 7 6 7 7 7 6 3 3 3 5 4 3 8 8 8 7 7 7 8 7 7 8 8
12 10 10 10 8 9 12 13 14 13 13 12 11 11 10 11 9 8 8 8 8 7 7 6 6 6 6 6 5 4 5 7 10 8 9 8 7 7 6 8 7 5 6 9 10 8 8 8 9 8 8 8 8 8 7 8 7 7 7 6 6 6 5 6 8 9 8 7 5 1 4 5 5 2 6 6 7 7 7 7 6 6 6 6 9
10 9 10 9 8 11 13 13 13 13 13 12 11 11 11 10 9 8 9 9 9 9 8 8 8 7 9 8 6 5 7 8 6 7 8 7 8 5 7 6 6 3 3 10 8 8 7 7 8 8 7 7 7 7 7 7 7 6 6 6 5 4 5 6 8 9 9 5 1 5 5 3 5 3 5 4 5 6 6 6 5 5 5 6 8
9 10 11 10 9 16 14 13 14 14 13 12 11 10 10 10 9 9 9 10 10 9 10 9 7 7 8 9 8 7 5 4 9 7 7 7 7 7 6 6 6 6 5 5 5 7 6 7 7 7 6 7 7 6 7 7 6 6 6 5 4 4 5 7 8 9 6 4 4 4 3 3 3 3 4 5 4 5 5 4 5 5 5 4 1
8 9 9 9 10 16 14 13 14 14 14 13 12 11 11 10 9 10 10 10 9 7 7 7 7 7 9 9 9 8 7 5 7 8 7 7 7 6 6 6 4 5 5 5 4 6 6 6 5 5 6 6 5 5 5 6 5 5 5 5 3 4 5 8 10 8 6 4 1 5 1 3 3 4 5 5 4 4 7 6 5 5 4 1 1
8 8 7 9 13 14 14 14 13 13 14 13 12 11 10 11 9 11 11 8 7 5 6 9 6 8 8 9 9 8 7 6 6 6 8 5 6 7 7 6 5 5 4 4 4 4 4 5 5 5 5 4 5 4 4 5 4 4 4 4 3 3 6 7 7 5 3 4 3 2 0 3 3 3 6 6 5 5 6 5 7 7 5 2 4
8 7 8 9 14 14 14 13 13 14 14 13 12 11 10 10 11 10 9 8 7 7 7 5 9 8 9 9 9 9 8 7 4 6 7 7 4 6 7 6 4 4 5 5 5 3 4 3 4 4 4 4 3 3 3 3 4 3 3 3 3 4 7 7 5 6 3 3 4 3 3 4 4 4 5 5 5 5 4 5 5 6 6 5 3
8 6 8 10 10 12 13 13 12 13 13 13 12 11 10 9 10 10 9 9 7 8 8 5 6 6 11 10 10 7 8 6 5 6 5 8 7 6 6 4 6 5 4 4 3 1 2 3 3 2 4 2 2 1 1 2 2 3 3 3 4 4 6 9 5 6 3 3 3 3 2 1 3 6 5 4 3 5 5 5 6 7 6 5 6
8 8 9 9 8 11 12 12 12 12 12 11 11 10 10 11 10 10 9 7 6 6 7 7 4 8 7 9 7 8 8 8 8 7 6 7 9 8 6 7 4 7 5 4 3 4 4 4 2 3 2 2 1 1 1 0 0 1 3 4 5 5 7 5 6 4 3 1 2 2 3 2 2 6 4 4 2 6 6 7 7 7 6 7 6
8 10 10 9 8 8 13 11 11 12 12 11 10 10 10 10 10 8 8 8 6 7 7 7 6 9 7 5 7 8 7 8 9 8 6 4 8 6 5 5 6 6 5 5 5 5 2 3 3 2 2 3 2 2 2 3 2 0 1 3 4 5 7 4 5 5 4 2 1 2 3 2 5 6 3 2 3 5 6 8 9 9 9 9 8
8 9 10 10 9 7 7 10 10 12 11 11 10 10 10 9 9 9 9 8 8 7 8 7 7 6 9 7 7 8 8 8 8 6 5 4 5 7 6 6 6 6 5 5 4 6 5 5 4 4 4 3 4 4 4 4 3 3 1 1 3 4 6 5 5 4 6 3 4 4 3 3 5 5 4 3 4 6 7 8 10 10 11 11 11
9 6 9 10 10 8 7 8 7 11 11 11 10 10 10 9 8 8 8 8 8 6 7 7 7 7 3 4 6 6 6 4 10 8 7 5 3 4 7 7 7 8 7 7 6 7 6 5 6 3 5 5 5 6 6 5 5 3 3 2 1 3 5 6 4 5 6 6 0 1 3 0 3 4 4 4 5 7 8 8 9 9 10 12 12
7 8 7 10 9 9 9 8 7 8 7 9 9 9 10 10 10 9 8 7 7 5 4 5 4 5 3 5 4 5 4 6 7 9 8 7 5 5 4 7 8 9 9 9 8 7 7 6 6 6 6 6 7 7 7 7 5 7 6 4 1 4 5 6 4 5 6 7 2 1 4 3 7 5 5 6 7 8 8 8 9 9 9 11 12
7 6 6 10 8 9 9 8 7 7 8 6 6 8 12 10 9 8 9 8 7 6 5 5 5 4 4 5 5 5 7 7 8 7 7 8 7 7 6 5 6 6 4 6 9 9 8 9 8 7 7 8 8 8 8 7 7 8 5 3 2 4 7 6 5 6 6 7 5 3 5 8 7 7 6 7 8 9 9 9 10 9 9 10 12
7 5 4 5 9 9 8 8 8 8 7 7 7 6 9 12 10 10 9 10 8 6 6 6 6 5 5 5 6 4 5 6 8 7 8 8 8 6 7 6 6 6 5 3 1 2 6 8 9 9 10 9 9 9 8 6 8 8 7 5 6 6 4 4 6 7 7 7 4 5 7 11 10 8 8 9 10 10 10 11 10 10 10 10 11
4 5 3 4 4 10 9 8 9 9 9 9 7 8 9 11 10 11 11 10 8 7 6 6 5 5 5 5 5 4 4 4 6 5 9 6 9 8 6 6 6 5 5 5 3 2 2 1 6 10 9 9 4 5 5 8 10 10 8 9 8 5 5 6 7 7 7 7 5 6 7 8 9 8 9 10 11 11 11 11 12 11 11 11 11
5 4 4 4 4 4 9 10 8 10 8 8 6 7 7 10 8 7 7 8 9 8 6 5 5 4 7 5 4 4 5 4 6 8 8 8 9 11 9 8 7 6 5 5 5 4 3 3 3 6 7 5 6 4 5 7 10 10 9 9 6 5 6 7 7 7 6 5 5 6 9 11 12 12 12 11 12 12 12 12 12 12 12 12 12
5 4 4 5 5 4 4 7 9 10 9 7 6 7 9 8 8 8 7 7 7 7 6 6 5 5 5 5 5 5 5 5 5 7 8 11 10 11 10 8 7 6 6 7 6 7 7 7 5 4 5 3 4 5 5 6 6 9 9 6 5 6 7 7 6 6 5 5 6 8 9 11 13 13 13 13 13 13 13 13 13 13 13 14 14
7 6 6 6 6 5 5 5 5 7 8 7 6 6 7 8 7 7 7 6 5 6 6 6 6 6 6 6 6 6 6 7 8 7 9 6 7 11 11 10 9 7 6 4 6 7 8 8 8 8 5 4 5 5 6 6 6 6 6 6 6 7 7 6 5 5 4 5 6 11 10 12 14 14 14 14 15 15 15 14 14 14 14 14 14
7 8 7 8 7 7 6 5 4 5 5 5 5 6 8 7 7 7 7 7 6 6 6 6 6 7 7 6 7 7 6 6 4 5 6 6 6 6 6 6 5 6 7 5 6 6 6 6 5 6 5 6 6 6 6 7 6 7 7 7 7 7 5 4 5 5 6 6 7 10 11 13 14 15 16 16 17 17 16 16 16 15 15 15 15
7 8 9 8 9 8 7 6 5 4 5 4 5 5 6 7 7 8 7 7 7 7 7 7 6 7 6 6 7 8 6 6 5 5 6 6 7 7 7 7 6 6 6 6 6 6 6 6 7 7 7 6 6 7 7 7 7 6 8 7 6 5 6 6 6 6 6 6 7 12 11 13 16 18 18 18 18 19 18 18 17 17 17 17 17
7 7 9 7 9 9 8 8 7 6 6 4 5 6 6 4 5 7 7 6 7 7 7 7 7 7 7 7 6 6 6 6 6 6 6 6 7 6 7 7 7 7 7 7 7 7 6 7 7 7 7 7 8 7 7 7 6 5 4 4 4 5 6 6 7 7 6 6 7 13 14 12 15 18 19 20 20 20 20 19 19 18 18 18 18
7 7 7 8 9 11 9 8 9 8 6 6 5 5 5 5 5 3 6 6 6 6 6 6 6 7 7 7 7 6 6 7 6 6 6 5 6 6 6 7 8 8 8 8 8 7 8 7 7 7 8 8 8 8 7 5 6 5 6 7 7 7 7 7 7 6 6 7 7 10 13 14 15 18 20 21 21 21 21 21 20 20 20 20 19
9 9 6 7 9 10 10 10 8 9 8 8 7 5 5 5 5 4 4 5 5 5 6 6 6 6 6 8 6 6 6 5 5 5 5 5 6 6 7 7 6 7 6 7 8 8 8 8 8 7 7 7 7 7 6 6 6 6 7 7 7 7 7 7 6 6 5 6 7 9 14 15 14 16 19 21 22 22 22 22 22 22 22 22 21
10 9 8 7 8 9 11 11 10 10 9 9 8 7 6 7 7 7 6 7 6 6 5 6 6 7 6 7 8 7 7 6 5 5 6 5 5 6 6 5 6 6 6 6 6 6 7 6 6 5 5 5 5 6 6 7 7 6 7 7 8 8 8 7 5 6 5 6 6 7 11 13 13 14 17 19 22 22 22 22 23 23 23 23 23
8 9 9 8 7 10 10 11 10 9 8 9 9 9 8 8 9 8 7 7 6 6 6 6 6 7 7 6 7 8 7 6 6 6 7 7 7 7 7 7 7 7 6 7 6 6 4 5 5 5 5 5 6 6 5 5 5 6 7 7 7 7 7 7 6 5 6 7 6 6 8 13 14 13 15 19 21 22 22 22 22 23 24 24 24
7 9 8 7 7 10 11 11 11 10 10 10 9 9 10 9 8 8 8 7 6 6 6 6 6 6 7 6 6 7 7 6 6 6 6 7 7 7 7 7 7 7 6 5 6 6 6 5 4 4 4 4 6 4 4 5 6 6 4 6 6 7 7 6 6 6 6 7 7 7 8 10 14 16 15 16 20 21 22 22 22 23 23 24 24
6 7 8 9 10 9 10 11 11 10 11 11 10 9 8 8 7 7 8 8 7 7 8 8 7 6 6 7 6 7 7 8 7 7 5 6 6 7 6 7 6 7 7 7 6 5 5 5 5 4 5 5 5 4 3 3 4 5 5 5 5 5 5 5 6 6 7 7 8 8 8 9 8 12 16 17 18 19 22 22 22 22 23 23 24
7 6 7 10 9 7 7 8 10 10 11 9 8 7 7 6 7 6 7 8 8 8 8 8 8 8 7 7 8 8 8 8 8 7 7 5 5 6 6 6 7 6 7 7 7 6 6 6 6 6 6 6 6 5 5 6 6 6 7 6 5 6 5 6 6 6 6 6 6 8 9 8 8 7 8 14 18 19 20 22 22 22 22 23 24
6 6 10 10 9 9 8 7 10 10 11 10 9 8 6 6 6 6 7 7 8 8 8 8 8 8 8 9 10 9 9 9 9 8 8 7 6 6 6 7 7 6 7 6 6 6 6 6 5 6 5 6 6 6 7 7 7 8 7 7 7 7 6 6 6 5 6 6 6 8 8 7 6 6 7 7 10 18 19 19 21 22 22 22 23
9 9 8 8 10 9 10 9 10 12 12 12 10 9 9 8 7 6 6 7 7 8 8 9 8 7 7 8 10 10 9 9 9 9 9 8 7 6 7 6 6 6 6 6 5 6 5 5 6 5 6 7 6 7 7 8 7 8 6 6 6 6 7 7 7 7 8 7 8 9 9 9 9 8 8 8 7 9 17 18 19 20 20 21 22
9 8 9 9 9 9 10 10 11 13 12 13 12 10 10 10 9 8 8 6 8 8 7 7 7 8 8 7 9 10 10 10 10 9 9 9 8 7 6 6 6 6 6 6 6 6 6 5 6 7 7 7 7 7 7 7 7 8 6 6 7 7 8 8 8 8 7 9 9 9 9 9 9 10 9 9 8 7 10 16 17 18 18 19 21
9 9 9 11 11 10 9 10 8 10 10 11 12 11 10 10 9 8 8 9 7 8 7 6 7 7 8 8 8 10 10 11 10 10 9 9 8 8 7 7 7 7 6 6 6 6 7 8 8 8 8 8 7 7 7 6 6 6 6 8 9 9 10 9 9 8 8 9 9 10 9 9 9 9 8 8 7 7 7 9 13 15 17 17 16
7 9 9 9 9 8 9 10 9 9 9 9 10 9 9 8 7 8 8 9 8 6 7 8 8 8 9 9 8 9 10 11 11 11 10 9 9 9 8 8 7 7 8 8 7 8 8 9 10 8 8 9 8 7 6 5 6 7 8 10 9 10 9 10 9 9 10 11 11 11 9 9 8 8 8 7 6 6 7 7 6 5 8 15 15
7 8 9 8 10 9 8 8 9 9 8 8 7 8 8 8 9 7 7 9 9 8 8 9 8 10 10 9 9 9 9 11 12 11 11 10 10 10 9 8 8 8 9 10 10 9 11 11 11 10 9 8 8 7 7 6 5 6 8 9 9 9 9 8 8 10 10 10 10 9 10 10 9 8 8 7 6 6 6 6 5 6 6 9 14
6 7 8 9 10 11 10 11 11 10 9 9 9 9 10 8 7 9 11 10 10 10 9 9 9 9 10 11 11 10 10 11 12 12 12 11 10 9 10 9 8 9 10 11 11 10 10 9 9 8 10 9 8 8 8 5 5 7 7 9 9 8 11 11 13 12 11 10 9 9 8 8 8 8 8 7 7 7 7 7 6 6 6 6 8
8 8 9 11 11 10 11 11 9 11 11 12 11 10 10 11 11 12 11 9 9 10 11 10 11 10 10 10 10 10 10 10 11 12 11 12 11 10 10 11 10 9 10 9 9 9 10 10 9 9 9 11 9 7 7 6 8 9 6 5 7 9 13 14 15 15 14 11 10 10 9 9 9 8 6 6 7 7 7 7 6 6 6 6 6
10 11 11 9 9 10 10 10 11 12 12 12 11 11 10 10 10 8 9 8 8 9 8 9 8 9 9 10 10 10 10 10 11 12 12 12 12 11 11 10 11 10 9 10 10 11 11 12 12 11 8 8 9 6 9 12 8 4 4 4 8 4 4 7 10 13 12 12 9 10 10 10 10 7 7 7 7 7 6 6 6 6 6 6 6
8 8 9 11 10 10 11 12 12 13 12 13 13 13 13 12 10 8 7 8 7 7 9 8 8 9 11 11 10 10 11 11 12 12 12 12 13 13 11 10 11 11 11 10 11 12 11 11 12 12 9 8 9 10 9 10 9 7 5 8 4 2 7 6 8 8 11 12 12 12 9 9 8 7 6 7 6 6 5 6 7 7 7 6 6
10 10 10 11 10 13 13 13 12 12 11 12 14 12 9 8 8 7 5 6 5 7 7 8 10 10 9 9 13 12 12 12 12 13 13 14 14 13 12 12 11 11 11 11 12 13 12 11 11 11 13 12 10 7 8 11 12 11 7 3 2 3 6 3 1 5 6 7 8 8 8 8 7 7 7 6 5 6 6 5 6 6 7 7 6
12 12 12 12 10 10 11 12 11 11 11 12 13 11 10 11 10 10 10 9 9 8 11 13 12 12 14 14 12 12 13 12 11 12 13 12 13 14 13 12 12 11 11 12 11 9 12 13 13 12 12 13 10 7 8 10 13 13 14 10 4 4 2 1 3 4 2 4 6 5 7 7 6 7 6 5 6 7 7 7 6 6 6 6 6
11 10 10 11 12 11 11 12 12 11 12 12 12 11 11 10 13 14 14 14 13 12 12 10 10 11 9 9 11 11 13 13 12 12 12 13 12 12 13 13 12 11 11 10 12 13 12 12 11 12 13 10 10 11 11 8 8 11 13 15 13 7 2 1 4 1 4 3 2 5 5 5 6 5 6 6 7 7 6 7 6 6 5 6 6
10 9 8 9 12 14 12 11 9 10 10 10 11 12 12 12 12 12 12 12 13 13 12 11 10 8 10 11 10 10 12 13 13 13 13 13 13 13 13 13 13 12 11 12 13 12 10 10 12 12 10 10 13 13 12 7 11 10 11 12 12 12 8 5 5 5 4 4 5 3 1 3 4 5 6 7 7 6 7 6 6 7 7 6 6
11 10 9 8 8 9 10 9 10 9 9 9 10 11 12 13 12 11 11 10 11 10 8 8 9 9 10 9 10 11 11 13 13 14 14 14 13 13 14 13 13 13 12 12 11 11 14 12 12 12 13 12 11 12 9 11 10 10 8 10 10 9 8 9 7 5 8 7 10 7 9 5 4 5 6 6 7 7 7 7 7 7 7 6 6
9 8 7 6 7 7 8 9 10 9 9 9 10 11 13 12 11 11 12 11 9 9 8 9 9 9 11 11 11 10 11 11 13 14 14 14 14 14 13 15 15 13 11 13 12 12 12 13 14 13 13 13 11 11 13 11 9 7 9 8 9 8 8 7 9 10 8 10 11 6 6 7 8 5 6 5 4 4 5 6 5 5 6 7 6
8 9 9 8 6 6 6 7 8 8 9 10 11 12 12 12 12 12 13 13 13 12 11 11 10 9 10 11 11 11 11 12 11 13 15 14 14 14 14 14 14 13 12 12 13 13 13 13 12 12 13 14 12 12 11 11 10 10 9 10 12 12 12 12 11 10 10 8 8 11 10 7 8 7 7 7 6 7 6 5 5 6 6 6 7
Wind_Direction
140 133 139 149 152 149 147 147 143 140 141 139 136 135 136 134 132 128 128 125 125 126 115 107 105 106 108 104 105 108 109 90 106 110 95 88 86 87 91 82 88 87 86 90 84 80 75 72 71 69 71 67 62 60 67 70 67 64 66 64 67 68 72 69 63 68 75 87 91 91 90 88 89 89 84 80 74 65 77 90 79 74 65 79 80
141 131 139 150 152 148 147 147 145 143 143 144 144 141 140 138 136 136 133 135 130 127 122 119 111 103 94 114 127 123 115 103 89 92 97 94 94 95 92 91 88 94 89 85 81 81 80 77 69 68 73 72 65 63 64 73 74 74 71 68 69 68 63 62 59 59 75 89 99 100 95 89 88 85 82 77 69 64 67 79 83 70 78 81 76
125 133 143 149 152 149 148 146 146 147 147 145 146 142 132 147 146 146 144 139 134 138 137 122 113 108 108 109 132 134 133 116 115 109 107 107 107 104 96 94 98 93 86 85 93 85 81 82 80 71 65 68 72 71 76 82 82 79 72 68 66 65 61 49 43 50 48 62 103 106 95 96 97 92 87 76 72 68 71 85 91 95 92 85 79
128 133 142 149 150 150 147 148 148 147 148 149 148 148 139 126 159 150 151 148 153 144 121 125 125 131 115 123 131 144 145 131 126 111 98 103 101 99 99 98 90 87 97 94 95 94 80 75 71 67 66 65 75 79 87 89 89 82 76 70 63 59 58 45 19 16 12 94 115 108 95 83 72 82 90 91 83 81 80 88 95 95 92 92 89
132 134 139 146 149 149 148 150 150 149 146 149 152 152 144 135 142 145 151 149 144 131 128 127 139 123 117 132 143 129 126 109 95 109 113 112 104 107 112 103 110 115 106 109 107 87 83 80 76 69 67 69 73 80 80 85 83 88 80 72 62 50 42 29 357 334 331 298 231 240 197 110 93 101 92 88 90 87 85 87 87 90 91 94 94
134 132 141 149 150 150 148 150 152 149 146 145 147 150 150 142 144 145 138 128 124 128 134 150 129 129 134 134 145 144 155 134 120 134 123 113 106 115 113 117 109 116 124 114 92 91 82 75 78 80 77 70 73 81 82 81 81 80 81 69 62 47 28 7 336 339 331 320 268 211 157 121 110 99 104 105 102 106 110 109 106 98 97 93 92
134 134 147 152 150 153 148 152 152 150 146 145 146 150 157 159 150 146 145 137 135 138 142 151 144 152 156 140 147 157 126 127 139 128 116 111 113 122 119 107 112 117 123 116 108 104 86 91 93 88 79 73 70 74 82 82 83 78 77 71 60 45 15 347 335 329 328 328 298 173 110 115 111 103 122 122 121 120 113 110 104 103 101 108 98
131 142 156 151 152 152 152 153 152 150 147 147 147 149 151 158 158 155 151 150 147 148 157 163 159 151 150 143 144 141 149 137 114 119 120 130 123 127 109 116 113 109 92 122 110 95 100 101 85 79 77 74 75 70 77 87 83 82 75 69 58 31 3 328 332 331 316 300 73 67 64 88 119 126 131 130 127 121 112 105 106 101 99 94 109
139 148 155 154 145 151 155 153 152 152 150 149 151 153 153 152 157 156 156 151 155 165 168 166 144 152 154 153 150 147 164 149 135 134 133 133 128 118 120 111 128 129 141 131 112 113 105 99 89 82 81 79 70 71 64 69 75 79 78 72 56 21 330 331 328 329 325 283 48 56 65 44 102 114 142 144 142 133 93 74 109 108 103 111 216
146 148 155 149 144 154 154 152 154 153 151 152 154 156 156 152 154 164 160 162 165 164 154 136 154 161 159 160 158 154 159 157 134 140 127 123 146 135 136 119 133 150 144 106 120 127 126 109 112 105 89 82 74 71 66 55 68 63 65 60 44 360 331 334 330 326 293 323 61 90 84 56 99 124 153 158 152 125 74 62 130 119 111 292 242
150 152 148 128 145 152 152 152 153 154 155 154 158 159 157 148 153 161 169 164 161 163 168 152 163 149 160 158 159 160 150 154 153 153 135 139 142 143 134 167 151 126 110 142 158 134 136 125 120 110 97 91 87 72 67 58 48 43 48 54 37 345 341 330 332 310 329 348 33 40 289 117 106 103 153 158 163 128 101 100 118 133 136 170 123
146 146 133 128 145 151 153 153 154 156 157 157 159 161 160 155 155 164 165 154 185 165 189 180 154 161 155 157 162 162 149 157 159 148 148 152 172 152 155 151 135 147 168 173 152 174 137 142 127 137 119 105 96 80 70 65 55 33 36 37 30 358 336 329 329 304 330 7 353 26 345 51 107 131 145 160 180 156 139 143 156 157 166 158 155
139 138 113 129 144 153 154 155 154 156 159 158 160 163 162 160 161 163 175 176 169 165 189 222 156 184 155 163 172 151 157 162 156 141 172 168 161 160 154 155 163 166 183 138 144 161 158 160 151 149 118 132 107 103 68 82 74 40 28 27 21 353 336 329 318 311 339 359 357 328 306 56 116 137 132 164 188 204 177 197 192 180 182 176 179
142 127 122 135 147 155 154 156 155 154 157 157 160 163 166 166 167 169 185 178 174 183 171 196 227 170 186 173 182 158 166 169 160 158 180 176 160 183 166 172 193 176 178 149 164 198 191 189 186 169 177 135 145 165 222 221 237 37 21 16 12 351 344 317 292 272 283 235 283 321 339 9 127 124 118 127 198 210 211 209 206 214 212 202 202
148 126 133 138 142 158 158 155 158 155 157 159 160 163 170 173 173 172 172 175 176 194 178 198 218 173 185 186 171 158 173 173 174 172 180 175 175 167 172 191 190 181 180 187 194 207 203 218 201 206 206 207 194 234 227 239 244 254 17 19 8 349 349 327 320 308 283 204 233 266 239 270 151 131 121 156 200 230 229 232 232 227 231 235 214
136 127 136 135 148 154 159 161 157 156 158 162 163 167 171 176 177 177 172 174 194 190 191 190 203 204 179 185 174 175 176 191 171 167 160 176 188 181 189 191 184 190 204 194 199 216 202 224 212 195 215 209 225 234 250 243 245 222 140 21 358 351 335 340 305 302 306 284 221 213 228 255 166 149 151 189 228 220 235 234 237 241 238 234 236
133 138 135 141 151 155 160 163 161 157 163 166 170 174 174 177 178 179 180 179 186 214 190 191 195 210 181 133 168 181 180 193 164 175 170 149 201 172 188 189 203 201 199 205 207 218 225 224 224 208 215 215 220 232 232 236 236 188 167 220 328 330 319 321 300 297 296 290 194 342 307 324 170 160 174 210 231 242 236 235 242 244 242 242 239
140 145 146 148 156 158 167 163 162 161 170 172 175 178 180 180 183 181 182 180 179 196 194 200 206 210 128 128 115 128 187 192 167 174 167 170 153 131 157 189 202 206 207 208 204 211 211 227 230 230 242 223 225 236 237 235 228 186 199 192 230 304 307 310 276 277 282 282 220 244 257 217 185 186 204 227 238 244 248 250 244 244 242 239 239
140 159 161 152 160 161 167 164 171 171 171 178 180 182 182 184 185 189 180 175 174 188 193 198 205 209 174 147 135 133 135 147 146 165 168 166 156 146 154 163 187 201 212 243 223 213 212 216 216 226 230 229 224 229 236 238 192 191 197 188 243 277 292 289 263 262 264 273 229 223 237 223 208 199 233 243 242 244 249 251 256 255 249 248 241
136 165 177 167 158 169 169 165 171 181 174 179 183 181 186 183 185 185 184 176 170 186 192 200 201 202 176 166 157 142 149 150 160 165 172 170 164 175 176 173 186 194 169 133 67 247 229 226 215 220 228 235 230 234 237 205 186 186 200 221 243 260 269 246 250 251 254 258 246 226 228 207 216 226 243 249 247 247 249 252 254 258 258 249 246
131 166 189 186 172 169 172 167 173 183 181 183 184 182 186 186 186 187 184 181 169 193 191 198 209 204 175 174 162 183 192 171 168 173 182 180 179 181 171 189 192 196 189 180 197 198 119 311 253 234 233 238 229 198 187 199 216 222 224 223 226 235 234 240 246 245 242 239 247 249 228 208 233 235 245 247 250 251 251 252 253 254 256 258 252
145 157 204 190 209 192 172 167 175 182 187 180 183 179 180 187 187 189 187 189 174 192 184 192 194 202 199 183 183 195 212 209 184 196 184 192 185 186 186 184 186 195 187 198 192 190 205 221 256 266 246 139 162 168 197 217 215 213 211 208 213 230 235 234 241 245 240 246 242 245 231 215 224 239 245 249 250 252 253 252 254 252 252 254 258
165 168 203 210 197 206 196 175 169 181 188 182 180 178 170 182 190 188 192 204 184 190 191 193 188 206 201 202 197 204 208 221 218 191 195 189 184 190 189 189 195 192 195 195 200 199 212 228 228 172 161 181 173 204 204 205 219 213 202 206 220 231 233 237 239 245 242 234 241 247 238 215 225 239 244 248 251 253 253 254 253 254 252 252 252
176 181 189 211 198 195 201 197 180 174 177 180 171 156 156 174 185 187 193 197 191 189 195 193 200 203 210 202 205 210 212 208 223 198 179 154 174 182 186 188 198 206 212 210 213 212 208 211 195 191 188 197 211 211 224 230 200 193 199 206 219 226 229 233 257 269 269 265 253 245 230 216 225 235 242 246 249 250 251 251 251 251 251 251 251
180 171 189 195 197 192 188 200 188 171 170 172 164 170 153 171 184 192 191 186 188 188 196 204 197 207 212 196 201 212 208 210 205 166 158 167 157 177 189 190 193 202 192 205 205 210 211 210 208 204 212 209 217 223 227 238 203 186 199 210 215 218 229 242 244 260 265 267 267 252 226 214 222 232 240 245 247 248 248 248 249 250 250 249 250
171 175 188 187 189 194 182 183 194 177 172 174 171 183 175 173 184 191 186 178 189 186 191 198 202 203 209 213 199 206 200 198 211 181 186 186 185 175 187 193 199 206 187 209 209 209 207 210 204 205 215 218 217 225 224 225 227 201 200 206 210 222 223 226 227 233 239 243 255 263 246 220 223 237 242 244 244 245 245 246 246 247 248 249 248
175 185 179 187 180 190 186 175 186 181 176 182 181 183 190 194 189 183 185 186 178 189 190 188 195 200 201 205 212 207 207 203 203 205 200 189 188 198 189 192 202 203 192 203 210 211 213 204 207 205 207 211 223 226 221 217 212 215 229 233 230 230 231 228 223 225 235 245 248 253 260 243 227 235 241 243 245 245 244 243 244 245 247 248 248
166 190 179 180 178 185 187 177 181 179 175 181 196 191 182 193 215 210 188 188 181 186 190 189 193 203 195 196 201 209 206 208 209 201 206 192 194 196 204 194 192 201 194 194 202 206 207 207 206 208 203 207 212 219 222 220 218 212 226 233 229 228 229 227 222 223 227 234 244 250 251 252 240 235 239 243 246 247 247 246 244 244 244 246 247
172 184 184 177 175 178 183 185 180 182 176 181 199 199 183 184 203 218 217 198 197 191 190 191 198 209 189 190 189 210 225 217 212 210 198 202 198 199 203 208 205 204 195 197 192 198 204 207 209 209 207 207 206 211 212 219 214 212 212 219 221 225 227 227 226 232 237 242 244 244 248 255 246 234 236 242 247 250 251 250 247 245 245 245 245
176 176 179 183 170 174 182 185 182 183 180 181 195 199 192 188 197 209 214 201 202 197 193 197 197 204 201 191 191 193 208 217 219 214 209 219 206 202 204 214 215 207 197 211 212 195 200 204 209 214 216 216 214 217 212 219 219 218 219 224 223 223 218 211 218 229 245 251 251 251 251 253 250 239 236 238 244 249 251 252 250 247 246 245 245
171 177 178 182 172 171 183 183 183 181 181 186 187 197 198 199 192 197 201 200 194 192 203 211 206 196 204 197 190 189 194 212 222 214 206 205 205 200 202 204 215 214 200 203 205 208 208 209 205 212 226 230 227 216 214 223 224 224 219 218 222 217 218 216 216 223 238 248 253 258 257 255 256 248 237 239 243 247 250 252 253 252 250 248 247
187 184 176 172 178 176 179 184 186 183 181 186 185 194 201 205 193 186 193 196 187 192 203 214 219 206 197 196 185 186 192 208 221 233 215 200 204 202 198 196 205 207 207 203 200 196 199 213 215 212 215 218 230 233 228 224 237 239 238 236 232 226 218 214 221 225 236 244 250 253 251 246 244 244 242 240 244 247 249 250 252 254 254 252 250
202 185 176 170 183 185 178 184 188 184 185 187 188 193 196 200 203 191 188 191 196 193 199 208 215 215 201 195 192 194 195 204 219 234 241 217 204 204 203 200 198 199 202 207 203 193 193 207 232 230 229 226 233 253 273 268 257 258 262 262 251 242 227 221 229 231 236 240 246 250 253 245 241 241 238 237 238 242 246 249 251 253 254 254 253
190 188 178 179 180 185 182 181 187 183 188 189 188 193 198 199 201 202 189 189 197 197 201 203 208 213 206 199 198 198 198 196 203 227 240 240 221 208 204 206 202 199 198 196 198 192 192 195 210 223 233 220 222 231 245 258 257 250 250 260 271 259 246 239 234 237 239 242 247 254 253 245 239 238 238 235 236 237 239 244 248 250 252 252 254
177 185 192 186 177 181 182 186 182 184 180 190 193 196 199 207 207 205 203 194 196 200 202 205 208 208 202 202 199 202 199 197 194 203 228 233 231 219 213 210 201 197 200 197 184 191 189 200 199 220 233 226 216 211 215 230 232 234 234 235 246 258 253 244 242 246 247 252 252 256 257 255 249 245 243 238 232 235 236 237 242 247 249 251 253
182 187 189 182 187 185 183 189 180 187 181 187 190 190 194 203 213 214 207 205 203 201 201 204 206 205 206 200 199 199 200 198 195 197 212 223 228 226 219 209 203 195 195 196 188 193 194 199 205 205 226 233 216 221 213 223 224 231 227 224 231 236 242 242 241 242 242 244 246 250 251 252 253 253 251 250 237 225 230 235 239 243 247 250 253
182 176 179 186 191 189 184 191 187 189 187 185 188 190 191 198 205 208 211 207 207 210 206 197 198 203 209 206 195 197 201 201 200 197 203 213 224 231 224 209 203 202 198 197 197 196 192 203 216 217 222 227 223 228 221 217 224 227 225 232 237 239 244 241 239 239 239 238 240 241 244 243 241 239 239 240 240 239 221 227 237 241 245 249 251
179 180 175 181 190 188 189 193 192 191 192 187 189 190 194 196 200 205 208 217 214 204 202 199 207 205 208 212 196 197 201 201 200 200 202 206 213 223 226 214 202 203 205 204 207 193 200 203 218 218 219 223 227 225 228 221 219 223 226 230 231 232 239 242 241 240 241 246 246 246 245 246 242 239 238 234 235 233 239 234 228 234 239 244 247
179 179 176 176 183 191 187 191 191 189 195 193 190 191 192 197 201 202 207 215 223 213 198 204 207 208 212 211 205 196 196 197 198 198 203 204 209 216 220 217 203 201 205 211 213 205 202 206 214 218 218 220 221 224 228 222 229 233 237 238 235 232 234 233 233 232 233 238 242 244 246 245 241 238 236 232 231 233 239 238 235 221 234 239 244
176 177 179 178 182 189 188 185 193 190 189 193 185 191 191 196 200 202 213 215 214 215 210 207 201 208 209 205 208 206 193 194 195 198 203 203 207 212 216 214 210 201 203 208 211 208 205 206 213 215 219 223 220 223 225 234 247 243 242 243 240 242 241 239 237 235 236 234 236 233 237 238 236 238 235 235 230 238 239 237 233 225 219 228 232
183 182 185 190 188 188 183 189 191 189 185 190 192 189 194 198 204 207 213 209 209 209 214 214 212 210 204 205 207 206 198 191 193 195 201 202 207 209 211 218 215 208 206 211 209 210 208 209 212 209 215 220 224 215 221 209 244 257 250 257 261 254 256 252 251 247 240 238 233 233 231 227 231 231 231 227 232 235 239 234 230 230 232 231 225
195 193 196 196 196 194 189 194 182 190 195 195 195 195 196 197 196 205 206 206 205 205 213 212 215 215 211 209 209 206 201 195 193 194 197 200 205 207 209 211 212 215 214 210 208 209 207 209 207 216 210 216 225 202 207 172 232 235 245 273 263 248 239 235 236 240 237 238 233 235 237 234 234 228 222 220 226 227 226 225 222 228 233 232 232
190 194 201 199 198 196 200 193 190 190 198 197 194 200 200 201 200 206 200 211 212 211 214 215 214 217 217 215 212 211 205 202 193 194 195 201 204 206 211 207 209 210 211 209 207 208 207 207 204 209 205 215 223 207 198 191 222 201 229 289 274 282 280 233 237 235 231 230 226 229 227 229 229 220 218 220 225 223 221 214 220 224 227 230 230
208 206 203 200 200 199 202 199 200 196 196 198 198 202 198 199 201 201 197 200 201 202 207 209 212 213 219 215 218 212 207 207 198 195 199 200 201 205 206 207 208 205 208 208 206 210 206 208 207 207 196 207 210 218 204 194 200 158 213 208 241 244 300 261 228 236 217 219 215 220 216 220 216 218 214 221 220 223 224 215 222 221 222 222 226
206 209 208 204 204 202 202 201 202 202 201 200 201 198 190 193 196 199 195 200 208 194 197 213 211 212 217 214 219 212 211 209 207 203 200 201 201 202 203 207 206 206 205 209 209 210 207 209 207 206 204 208 210 208 205 204 205 205 200 161 248 261 226 260 357 278 203 213 218 210 205 203 209 216 215 220 219 226 229 230 223 219 219 220 222
210 211 210 210 207 209 207 204 204 203 204 203 200 194 193 192 185 186 198 201 205 198 201 207 203 204 210 213 213 209 212 212 208 211 208 206 204 203 203 203 207 208 206 208 209 206 209 208 207 208 213 212 209 192 211 206 213 208 222 235 177 193 204 269 39 281 319 229 211 213 196 204 204 206 211 215 225 231 226 232 225 223 220 218 217
218 214 212 208 211 213 212 207 205 206 205 204 195 190 197 200 198 198 198 199 204 212 213 212 206 212 213 211 212 210 211 211 211 209 210 208 209 207 206 207 208 209 208 206 207 208 207 208 203 207 212 207 201 219 215 202 204 220 218 228 247 245 172 34 238 323 304 313 270 210 222 207 191 201 214 215 218 220 228 219 222 226 234 225 221
231 224 217 206 209 214 216 213 209 210 209 205 197 191 196 201 205 207 207 208 209 215 210 214 211 204 207 210 208 210 210 211 213 212 211 208 207 209 208 209 210 210 206 210 211 206 203 206 205 209 208 205 206 215 220 196 193 222 212 223 230 245 248 236 228 226 238 288 287 323 326 247 236 225 217 218 218 225 236 234 230 230 227 223 220
242 235 229 221 215 217 220 218 215 212 212 203 201 196 200 202 206 207 213 219 220 225 219 212 211 208 214 207 207 208 209 210 211 212 212 210 206 208 207 210 213 214 209 213 213 203 201 200 200 204 207 208 208 213 215 215 209 215 192 220 223 227 231 237 241 206 225 232 260 241 256 295 272 244 240 226 221 227 229 226 222 219 217 217 214
238 239 237 226 223 216 217 215 218 213 208 205 202 200 202 203 206 208 213 219 221 230 222 217 212 206 217 213 211 208 207 207 209 211 211 211 211 208 208 210 213 214 214 216 213 208 203 202 203 205 206 208 207 207 212 217 220 217 199 200 206 215 223 228 219 220 229 222 243 230 230 221 237 257 247 244 250 258 261 255 242 233 232 232 231
228 228 234 229 225 224 221 223 222 213 210 211 203 204 201 203 208 208 212 218 219 220 223 227 221 216 217 216 214 212 207 207 203 207 208 207 211 209 210 212 212 212 213 216 215 211 209 205 203 201 205 207 207 209 212 217 216 221 214 200 208 202 205 206 209 204 205 211 222 243 245 235 245 271 258 262 263 255 244 244 246 248 245 232 228